This is the latest recevied weather packets stored in our database for station/object KC5TIL-3. If no packets are shown the sender has not sent any weather packets the latest 10 day(s).
| Time | Temp. | Humidity | Pressure | Rain* | Wind** | Luminosity | Snow |
|---|---|---|---|---|---|---|---|
| 1778083138 | 13.33° C | 76% | 1011.8 hPa | 0 mm | 3.13 m/s, 35° | - | - |
| 1778082837 | 13.33° C | 77% | 1011.8 hPa | 0 mm | 3.13 m/s, 32° | - | - |
| 1778082538 | 13.33° C | 79% | 1011.8 hPa | 0 mm | 2.24 m/s, 58° | - | - |
| 1778082240 | 13.89° C | 80% | 1011.8 hPa | 0 mm | 3.13 m/s, 37° | - | - |
| 1778081939 | 13.89° C | 80% | 1011.8 hPa | 0 mm | 2.68 m/s, 333° | - | - |
| 1778081641 | 13.89° C | 80% | 1011.8 hPa | 0 mm | 4.92 m/s, 356° | - | - |
| 1778081343 | 13.89° C | 80% | 1011.8 hPa | 0 mm | 3.13 m/s, 18° | - | - |
| 1778081041 | 13.33° C | 80% | 1011.8 hPa | 0 mm | 4.47 m/s, 10° | - | - |
| 1778080739 | 13.33° C | 79% | 1012.8 hPa | 0 mm | 3.13 m/s, 21° | - | - |
| 1778080436 | 13.33° C | 78% | 1012.8 hPa | 0 mm | 3.13 m/s, 351° | - | - |
| 1778080135 | 12.78° C | 76% | 1012.8 hPa | 0 mm | 2.68 m/s, 271° | - | - |
| 1778079837 | 12.78° C | 75% | 1011.8 hPa | 0 mm | 1.34 m/s, 289° | - | - |
| 1778079514 | 12.78° C | 73% | 1011.8 hPa | 0 mm | 2.68 m/s, 289° | - | - |
| 1778079213 | 12.22° C | 71% | 1011.8 hPa | 0 mm | 4.02 m/s, 32° | - | - |
| 1778078915 | 12.22° C | 67% | 1013.8 hPa | 0 mm | 1.34 m/s, 290° | - | - |
| 1778078617 | 12.22° C | 67% | 1013.8 hPa | 0 mm | 1.34 m/s, 346° | - | - |
| 1778078315 | 12.22° C | 66% | 1013.8 hPa | 0 mm | 0 m/s | - | - |
| 1778078017 | 12.22° C | 66% | 1013.8 hPa | 0 mm | 1.79 m/s, 315° | - | - |
| 1778077719 | 12.22° C | 66% | 1013.8 hPa | 0 mm | 3.13 m/s, 7° | - | - |
| 1778077418 | 12.22° C | 67% | 1013.8 hPa | 0 mm | 1.79 m/s, 0° | - | - |
| 1778077119 | 11.67° C | 66% | 1011.8 hPa | 0 mm | 5.36 m/s, 22° | - | - |
| 1778076821 | 11.67° C | 65% | 1011.8 hPa | 0 mm | 5.36 m/s, 31° | - | - |
| 1778076520 | 12.22° C | 63% | 1011.8 hPa | 0 mm | 4.02 m/s, 16° | - | - |
| 1778076222 | 12.22° C | 62% | 1012.8 hPa | 0 mm | 4.47 m/s, 7° | - | - |
| 1778075924 | 12.22° C | 61% | 1012.8 hPa | 0 mm | 3.58 m/s, 64° | - | - |
* Rain latest hour (hover to see other rain measurements)
** Current wind speed in m/s (hover to see current wind gust speed)